Location: Newark
(40.7360°N, 74.1730°W)
Time: 02:25:29
(UTC-04:00)

ISS - All Passes

Search period start: 27 May 2016 00:00
Search period end: 06 June 2016 00:00
Orbit: 402 x 404 km, 51.6° (Epoch: 26 May)

Date Brightness Start Highest point End Pass type
(mag) Time Alt. Az. Time Alt. Az. Time Alt. Az.
27 May - 00:45:20 10° NW 00:47:02 13° N 00:48:44 10° NNE visible
27 May - 02:22:34 10° NNW 02:24:32 15° NNE 02:26:29 10° NE visible
27 May - 03:58:25 10° NW 04:01:35 46° NNE 04:04:44 10° ESE visible
27 May - 05:35:24 10° W 05:37:49 19° SW 05:40:13 10° S daylight
27 May - 20:38:52 10° S 20:40:52 15° SE 20:42:53 10° E daylight
27 May - 22:13:46 10° WSW 22:17:00 57° NNW 22:20:13 10° NE visible
27 May - 23:51:52 10° NW 23:53:59 16° NNW 23:56:05 10° NNE visible
28 May - 01:29:52 10° NNW 01:31:28 13° N 01:33:03 10° NE visible
28 May - 03:05:50 10° NW 03:08:43 28° NNE 03:11:37 10° E visible
28 May - 04:42:09 10° WNW 04:45:13 37° SW 04:48:15 10° SSE visible
28 May - 21:20:59 10° SW 21:24:14 74° SE 21:27:29 10° ENE visible
28 May - 22:58:26 10° WNW 23:00:59 20° NNW 23:03:31 10° NNE visible
29 May - 00:36:56 10° NNW 00:38:22 12° N 00:39:48 10° NNE visible
29 May - 02:13:15 10° NNW 02:15:47 20° NNE 02:18:17 10° ENE visible
29 May - 03:49:16 10° NW 03:52:31 77° SW 03:55:47 10° SE visible
29 May - 20:28:32 10° SSW 20:31:33 36° SE 20:34:35 10° ENE daylight
29 May - 22:05:07 10° W 22:08:02 29° NNW 22:10:57 10° NE visible
29 May - 23:43:40 10° NW 23:45:17 13° N 23:46:52 10° NNE visible
30 May - 01:20:41 10° NNW 01:22:46 16° NNE 01:24:50 10° NE visible
30 May - 02:56:32 10° NW 02:59:46 55° NNE 03:02:58 10° ESE visible
30 May - 04:33:49 10° W 04:35:54 16° SW 04:37:58 10° S visible
30 May - 19:36:35 10° S 19:38:57 19° SE 19:41:18 10° E daylight
30 May - 21:11:59 10° WSW 21:15:09 48° NNW 21:18:20 10° NE visible
30 May - 22:50:13 10° NW 22:52:12 15° NNW 22:54:11 10° NNE visible
31 May - 00:28:00 10° NNW 00:29:42 13° N 00:31:23 10° NE visible
31 May - 02:03:54 10° NW 02:06:54 32° NNE 02:09:53 10° E visible
31 May - 03:40:24 10° WNW 03:43:19 30° SW 03:46:13 10° SSE visible
31 May - 20:19:05 10° SW 20:22:21 90° ENE 20:25:38 10° NE daylight
31 May - 21:56:45 10° WNW 21:59:10 19° NNW 22:01:35 10° NNE visible
31 May - 23:35:09 10° NNW 23:36:36 12° N 23:38:03 10° NNE visible
01 Jun - 01:11:19 10° NNW 01:13:57 22° NNE 01:16:36 10° ENE visible
01 Jun - 02:47:24 10° WNW 02:50:38 62° SW 02:53:51 10° SE visible
01 Jun - 19:26:30 10° SSW 19:29:38 44° SE 19:32:46 10° ENE daylight
01 Jun - 21:03:22 10° W 21:06:11 26° NNW 21:09:00 10° NE visible
01 Jun - 22:41:57 10° NNW 22:43:29 13° N 22:45:00 10° NNE visible
02 Jun - 00:18:44 10° NNW 00:20:57 17° NNE 00:23:10 10° ENE visible
02 Jun - 01:54:38 10° NW 01:57:53 67° NE 02:01:06 10° ESE visible
02 Jun - 03:32:20 10° W 03:33:56 13° SW 03:35:32 10° SSW night (unlit)
02 Jun - 18:34:22 10° S 18:36:59 22° SE 18:39:37 10° E daylight
02 Jun - 20:10:09 10° WSW 20:13:16 41° NNW 20:16:24 10° NE daylight
02 Jun - 21:48:32 10° NW 21:50:23 14° N 21:52:15 10° NNE visible
02 Jun - 23:26:05 10° NNW 23:27:53 14° N 23:29:40 10° NE visible
03 Jun - 01:01:57 10° NW 01:05:02 37° NNE 01:08:06 10° E visible
03 Jun - 02:38:37 10° WNW 02:41:21 25° SW 02:44:05 10° SSE night (unlit)
03 Jun - 17:43:11 10° SSE 17:44:26 12° SE 17:45:39 10° ESE daylight
03 Jun - 19:17:10 10° WSW 19:20:26 75° NW 19:23:42 10° NE daylight
03 Jun - 20:55:02 10° WNW 20:57:19 17° NNW 20:59:37 10° NNE visible
03 Jun - 22:33:17 10° NNW 22:34:46 12° N 22:36:16 10° NNE visible
04 Jun - 00:09:21 10° NW 00:12:06 24° NNE 00:14:51 10° E visible
04 Jun - 01:45:31 10° WNW 01:48:42 50° SW 01:51:52 10° SE visible
04 Jun - 18:24:29 10° SW 18:27:40 55° SE 18:30:53 10° ENE daylight
04 Jun - 20:01:36 10° W 20:04:19 23° NNW 20:07:01 10° NNE daylight
04 Jun - 21:40:11 10° NNW 21:41:39 12° N 21:43:07 10° NNE visible
04 Jun - 23:16:45 10° NNW 23:19:06 18° NNE 23:21:26 10° ENE visible
05 Jun - 00:52:41 10° NW 00:55:57 81° NE 00:59:12 10° SE visible
05 Jun - 02:31:10 10° WSW 02:31:55 11° SW 02:32:41 10° SW night (unlit)
05 Jun - 17:32:10 10° SSW 17:35:00 27° SE 17:37:50 10° ENE daylight
05 Jun - 19:08:19 10° W 19:11:21 35° NNW 19:14:25 10° NE daylight
05 Jun - 20:46:47 10° NW 20:48:32 14° N 20:50:17 10° NNE daylight
05 Jun - 22:24:06 10° NNW 22:26:01 14° NNE 22:27:56 10° NE visible
